Погода в Саме

Погода в Саме : погода сейчас, прогноз погоды и архив. Всё, что Вы хотите узнать о погоде в Саме!

Поиск расширенной информации на нашем сайте:

Другие новости

Новости СМИ2

Главная страница сайта

Новости сайта

02.10.2013

Напоминаем, что на нашем новом сайте вы можете получить высокодетализированные прогнозы погоды по пунктам России, СНГ и мира (включающие важные для авиации метеовеличины, такие как направление и скорость ветра, видимость, явления погоды, количество и форма облачности, нижняя и верхняя граница облачности), а также ознакомиться с разнообразными материалами по авиационной метеорологии и подборкой полезных ссылок на эту тему.

Сайт Метеоцентр.Азия посвящён разработке технологий оптимизации авиаметеорологического обслуживания, включая проектирование и перспективное создание нескольких автоматизированных авиаметеорологических систем:
- система выпуска высокодетальных прогностических карт явлений погоды для нижнего воздушного пространства по России и ближнему зарубежью;
- система верификации прогнозов TAF (выпускаемых синоптиками официальных АМСГ РФ и ближнего зарубежья) и AUTOTAF (выпускаемых сайтом Метеоцентр.Азия) - выявление ошибок, онлайн-сопоставление с фактической погодой METAR, автоматическое внесение коррективов в прогнозы при резком отклонении фактической погоды от прогноза, подсчёт оправдываемости прогнозов по элементам и в целом;
- система обработки, анализа и отображения авиаметеорологической информации для применения провайдерами метеорологической информации.

Рекомендуем: Наши партнеры: www.careprost-moscow.ru

Погода в Саме - сегодня

Время (UTC), дата Ветер
(°,м/с) 
Видим.   Явления Облачность Т
(°С)
Тd
(°С)
f(%) Тe
(°С)
Pmin
(гПа)
dP
(гПа)
Po
(мм)
O2
(г/м3)
Тmin Tmax R s Состояние
почвы
00 25.04.17 290 (З) н/о    6/6 1000 м 
[Sc]
+9 +5.3 78 +8  1014.9  0.7  753  293           
03 25.04.17 320 (СЗ) 20000 м    6/0 средняя 
[Ac cuf]
+9.3 +5.3 76 +9  1017.2  -2.2  755  293           
06 25.04.17 340 (С) 20000 м    4/0 средняя 
[Ac lent]
+14.6 +4.1 49 +15  1018.6  1.5  757  288  +6.9         
09 25.04.17 320 (СЗ) 20000 м    4/0 средняя 
[Ac lent]
+18 +1.9 34 +19  1018.7  0.3  757  285           
12 25.04.17 320 (СЗ) 20000 м    4/0 средняя 
[Ac lent]
+19.4 -0.5 26 +20  1018.5  -0.2  756  284           
15 25.04.17 320 (СЗ) 20000 м    8/0 средняя 
[Ac cuf]
+17.1 -1.7 28 +18  1020.1  1.6  758  287    +20       
18 25.04.17 290 (З) н/о    ясно 
+12.2 -1.7 38 +11  1023.2  2.8  760  293    +20       
21 25.04.17 290 (З) н/о    ясно 
+8.9 +2.5 64 +8  1024.5  0.2  761  296           
00 26.04.17 320 (СЗ) н/о    8/8 1000 м 
[Sc diur, vesp]
+9.1 +4.6 73 +8  1025.5  1.1  761  296           
03 26.04.17 340 (С) 20000 м    8/0 средняя, верхняя 
[Ac cast|Ci sp]
+9.2 +2.9 65 +8  1027.9  2.3  763  296           
06 26.04.17 340 (С) 20000 м    1/0 верхняя 
[Ci sp]
+12.6 -1.7 37 +11  1029.3  1.4  764  294  +8.1         
09 26.04.17 320 (СЗ) 20000 м    8/8 1000 м 
[Cu med, cong]
+14.9 -4.7 25 +14  1029.5  0.3  765  292           
12 26.04.17 320 (СЗ) 10  20000 м    8/8 1000 м 
[Cu med, cong]
+15.8 -7.1 20 +15  1029.5  0.1  764  292           
15 26.04.17 320 (СЗ) 20000 м    5/5 1000 м 
[Sc diur, vesp]
+13.5 -7.4 23 +13  1030.7  1.1  766  294    +16.7       
18 26.04.17 320 (СЗ) н/о    ясно 
+7.7 -8.2 31 +7  1033  2.1  767  301    +16.7       
21 26.04.17 290 (З) н/о    ясно 
+4.8 -4.7 50 +4  1034.3  1.1  768  304           
00 27.04.17 290 (З) н/о    ясно 
+3.8 -1.1 70 +3  1034.9  0.6  768  305           
03 27.04.17 290 (З) 20000 м    ясно 
+7.7 -1.2 53 +7  1036.3  1.5  770  301           
06 27.04.17 360 (С) 20000 м    ясно 
+14.6 -7.1 22 +14  1037.2  1.1  770  295  +2.8         
09 27.04.17 360 (С) 20000 м    3/1 1000 м верхняя 
[Cu hum|Ci sp]
+17.2 -8.2 17 +17  1036.8  -0.2  770  292           
12 27.04.17 020 (С) 20000 м    3/0 верхняя 
[Ci sp]
+18.1 -9.8 14 +19  1035.7  -1.1  769  291           
15 27.04.17 020 (С) 20000 м    ясно 
+16.6 -7.4 19 +17  1035.3  -0.4  769  292    +18.5       
18 27.04.17 020 (С) н/о    ясно 
+10.6 -5.4 32 +12  1036.6  770  299    +18.5       
21 27.04.17 020 (С) н/о    ясно 
+7.4 -2.7 49 +8  1037.4  0.7  770  302           
00 28.04.17 070 (В) н/о    ясно 
+4.8 -4.7 50 +6  1036.5  -1.1  769  305           
Время (UTC), дата Ветер
(°,м/с) 
Видим.   Явления Облачность Т
(°С)
Тd
(°С)
f(%) Тe
(°С)
Pmin
(гПа)
dP
(гПа)
Po
(мм)
O2
(г/м3)
Тmin Tmax R s Состояние
почвы

Для получения пояснительной информации подведите курсор к названию столбца.

ПОГОДА в Саме - архив

Всё, что Вы хотите узнать о погоде в Саме - удобно и подробно!

Выберите нужную дату (начиная с 1 января 2015* года) и нажмите кнопку "Найти".
Будут отображены архивные сводки погоды по пункту Сам, начиная с указанной даты.


Отображать данные в формате CSV (для использования в таблицах Excel)


Внимание! Наш архив погоды предназначен исключительно для личного некоммерческого использования в познавательных целях. Если Вам необходимы официальные справки о состоянии погоды (для производственных, юридических, коммерческих и т.п. целей), обращайтесь в органы Росгидромета.

*Примечание: данная дата относится к архиву по метеостанциям СССР (Россия, СНГ, Балтия).
Архив по метеостанциям Зарубежной Европы и Азии (кроме Китая) хранится 10 дней, по другим регионам земного шара (Китай, Африка, Америка, Австралия, Океания) - 1 день.

Сам - район местоположения метеостанции


Название, широта, долгота, высота метеостанции:
Сам 45.4°ш. 56.1°д. 82 м над ур. моря [Казахстан]

Дополнительная информация

В oтличие oт бoльшинства пoгoдных сайтoв мы публикуем пoдрoбную метеoинфoрмацию в детальнoм прoфессиoнальнoм фoрмате.

Характеристики температуры и влажнoсти вoздуха измеряются на высoте 2 м в тени вдали oт зданий и деревьев.
Скoрoсть ветра измеряется на высoте 10 м (на урoвне рoста челoвека скoрoсть ветра ниже в 1.5-2 раза). Если метеoстанция нахoдится в гoрoде или в лесу, тo скoрoсть ветра занижена на 2-4 м/с пo сравнению с oткрытым местoм. Скoрoсть ветра над акватoриями крупных рек и oзёр, а также на вершинах хoлмoв на 2-5 м/с выше, чем в oбычных услoвиях.
Атмoсфернoе давление в разных тoчках местнoсти мoжет значительнo oтличаться oт давления на метеoстанции, в зависимoсти oт услoвий рельефа (при пoдъёме на 10 м давление пoнижается примернo на 1 мм рт.ст.).